Station HHLO1 - Huron Harbor Light, OH Image indicating link to RSS feed of recent meteorological observations for station HHLO1


Conditions at HHLO1 as of
(8:00 am EDT)
1200 GMT on 06/23/2024:
     

Click on the graph icon in the table below to see a time series plot of the last five days of that observation.

5-day plot - Wind Direction Wind Direction (WDIR): S ( 190 deg true )
5-day plot - Wind Speed Wind Speed (WSPD): 8.9 kts
5-day plot - Wind Gust Wind Gust (GST): 14.0 kts
5-day plot - Atmospheric Pressure Atmospheric Pressure (PRES):29.63 in
5-day plot - Pressure Tendency Pressure Tendency (PTDY):-0.02 in ( Falling )
5-day plot - Air Temperature Air Temperature (ATMP): 69.3 °F
5-day plot - Wind Speed at 10 Meters Wind Speed at 10 meters (WSPD10M): 9.7 kts
5-day plot - Wind Speed at 20 Meters Wind Speed at 20 meters (WSPD20M): 9.7 kts
5-day plot -  Wind Speed, Wind Gust and Atmospheric Pressure Combined plot of Wind Speed, Gust, and Air Pressure
Previous observations
TIME
(EDT)
5-day plot - Wind Direction
WDIR
 
5-day plot - Wind Speed
WSPD
kts
5-day plot - Wind Gust
GST
kts
5-day plot - Wave Height
WVHT
ft
5-day plot - Dominant Wave Period
DPD
sec
5-day plot - Average Wave Period
APD
sec
5-day plot - Mean Wave Direction
MWD
 
5-day plot - Atmospheric Pressure
PRES
in
5-day plot - Pressure Tendency
PTDY
in
5-day plot - Air Temperature
ATMP
°F
5-day plot - Water Temperature
WTMP
°F
5-day plot - Dew Point
DEWP
°F
5-day plot - Salinity
SAL
psu
5-day plot - Visibility
VIS
nmi
5-day plot - Tide (above MLLW)
TIDE
ft
2024-06-23 07:50 amSSW 8.9 17.1----29.63- 69.1-----
2024-06-23 07:40 am S 9.9 15.0----29.63- 69.3-----
2024-06-23 07:30 am S 8.9 13.0----29.65- 69.3-----
2024-06-23 07:20 amSSW 8.0 12.0----29.66- 69.4-----
2024-06-23 07:10 amSSW 8.0 11.1----29.66- 69.4-----
2024-06-23 07:00 amWSW 8.9 18.1----29.67+0.00 69.6-----
2024-06-23 06:50 am W 9.9 19.0----29.68- 70.0-----
2024-06-23 06:40 am W 12.0 24.1----29.68- 70.2-----
2024-06-23 06:30 amWNW 17.1 22.9----29.67- 72.0-----
2024-06-23 06:20 amWNW 18.1 31.1----29.68- 74.7-----
2024-06-23 06:10 amWSW 12.0 18.1----29.65- 82.2-----
2024-06-23 06:00 amWSW 15.0 21.0----29.64-0.06 82.2-----
2024-06-23 05:50 am SW 14.0 22.9----29.64- 82.2-----
2024-06-23 05:40 am SW 12.0 19.0----29.64- 82.2-----
2024-06-23 05:30 am SW 13.0 17.1----29.64- 82.2-----
2024-06-23 05:20 am SW 13.0 18.1----29.65- 82.4-----
2024-06-23 05:10 am SW 14.0 20.0----29.65- 82.6-----
2024-06-23 05:00 am SW 15.0 20.0----29.65-0.07 82.6-----
2024-06-23 04:50 am SW 13.0 18.1----29.66- 82.6-----
2024-06-23 04:40 am SW 14.0 20.0----29.67- 82.6-----
2024-06-23 04:30 am SW 15.0 20.0----29.67- 82.6-----
2024-06-23 04:20 am SW 13.0 18.1----29.67- 82.6-----
2024-06-23 04:10 am SW 12.0 18.1----29.67- 82.4-----
2024-06-23 04:00 am SW 11.1 18.1----29.67-0.07 82.4-----
2024-06-23 03:50 am SW 12.0 15.9----29.68- 82.4-----
2024-06-23 03:40 am SW 11.1 15.0----29.68- 82.4-----
2024-06-23 03:30 am SW 9.9 17.1----29.69- 82.4-----
2024-06-23 03:20 amSSW 8.9 14.0----29.69- 82.0-----
2024-06-23 03:10 am SW 8.9 13.0----29.69- 82.2-----
2024-06-23 03:00 amSSW 9.9 13.0----29.70-0.07 82.2-----
2024-06-23 02:50 am SW 8.9 13.0----29.70- 82.2-----
2024-06-23 02:40 am SW 8.0 14.0----29.71- 82.4-----
2024-06-23 02:30 amSSW 8.9 12.0----29.71- 82.6-----
2024-06-23 02:20 amSSW 8.0 12.0----29.71- 82.6-----
2024-06-23 02:10 amSSW 9.9 17.1----29.72- 82.8-----
2024-06-23 02:00 amSSW 9.9 13.0----29.72-0.04 82.8-----
2024-06-23 01:50 amSSW 8.9 14.0----29.72- 82.8-----
2024-06-23 01:40 amSSW 8.0 13.0----29.73- 82.8-----
2024-06-23 01:30 amSSW 8.9 12.0----29.73- 82.8-----
2024-06-23 01:20 amSSW 8.0 11.1----29.74- 82.8-----
2024-06-23 01:10 amSSW 8.0 13.0----29.74- 82.9-----
2024-06-23 01:00 am SW 8.0 12.0----29.74-0.04 82.9-----
2024-06-23 12:50 am SW 6.0 9.9----29.75- 82.9-----
2024-06-23 12:40 am SW 7.0 9.9----29.75- 82.9-----
2024-06-23 12:30 amSSW 7.0 9.9----29.75- 83.1-----
2024-06-23 12:20 am SW 7.0 11.1----29.76- 83.3-----
2024-06-23 12:10 am SW 7.0 12.0----29.77- 83.5-----
2024-06-23 12:00 am SW 8.0 12.0----29.77-0.01 83.5-----
2024-06-22 11:50 pm SW 8.0 12.0----29.77- 83.3-----
2024-06-22 11:40 pm SW 8.0 12.0----29.77- 83.3-----
2024-06-22 11:30 pm SW 8.0 11.1----29.77- 83.5-----
2024-06-22 11:20 pm SW 7.0 11.1----29.77- 83.7-----
2024-06-22 11:10 pm SW 8.0 9.9----29.77- 83.7-----
2024-06-22 11:00 pmSSW 6.0 8.9----29.76-0.04 83.8-----
2024-06-22 10:50 pmSSW 7.0 8.9----29.77- 84.0-----
2024-06-22 10:40 pm SW 6.0 11.1----29.78- 84.6-----
2024-06-22 10:30 pm SW 6.0 8.9----29.78- 84.6-----
2024-06-22 10:20 pm SW 6.0 8.9----29.78- 84.9-----
2024-06-22 10:10 pm SW 6.0 11.1----29.78- 85.3-----
2024-06-22 10:00 pm SW 7.0 9.9----29.78-0.04 85.5-----
2024-06-22 09:50 pm SW 7.0 11.1----29.77- 85.5-----
2024-06-22 09:40 pmSSW 5.1 8.0----29.77- 85.6-----
2024-06-22 09:30 pmSSW 5.1 8.0----29.77- 86.2-----
2024-06-22 09:20 pm SW 6.0 8.9----29.78- 86.5-----
2024-06-22 09:10 pm SW 7.0 9.9----29.78- 87.1-----
2024-06-22 09:00 pm SW 7.0 8.9----29.78-0.05 87.6-----
2024-06-22 08:50 pm SW 6.0 9.9----29.78- 88.2-----
2024-06-22 08:40 pm SW 7.0 11.1----29.79- 88.9-----
2024-06-22 08:30 pm SW 7.0 12.0----29.79- 89.1-----
2024-06-22 08:20 pm SW 8.0 11.1----29.80- 89.4-----
2024-06-22 08:10 pm SW 8.9 12.0----29.80- 90.1-----
2024-06-22 08:00 pm SW 9.9 12.0----29.80-0.06 91.0-----
2024-06-22 07:50 pm SW 7.0 9.9----29.80- 91.2-----
2024-06-22 07:40 pm SW 9.9 12.0----29.81- 91.2-----
2024-06-22 07:30 pm SW 8.9 11.1----29.81- 92.5-----
2024-06-22 07:20 pm SW 8.9 15.0----29.82- 91.8-----
2024-06-22 07:10 pmWSW 11.1 15.9----29.82- 91.9-----
2024-06-22 07:00 pmWSW 9.9 17.1----29.82-0.06 91.6-----
2024-06-22 06:50 pm SW 8.9 13.0----29.82- 91.8-----
2024-06-22 06:40 pm SW 8.0 9.9----29.82- 91.8-----
2024-06-22 06:30 pm SW 12.0 14.0----29.83- 91.6-----
2024-06-22 06:20 pm SW 8.9 14.0----29.83- 91.6-----
2024-06-22 06:10 pm SW 8.9 12.0----29.83- 91.6-----
2024-06-22 06:00 pm SW 8.9 12.0----29.83-0.07 91.2-----
2024-06-22 05:50 pmWSW 9.9 12.0----29.84- 90.9-----
2024-06-22 05:40 pmWSW 8.0 12.0----29.84- 91.2-----
2024-06-22 05:30 pmWSW 11.1 15.0----29.84- 91.9-----
2024-06-22 05:20 pm SW 13.0 17.1----29.85- 91.9-----
2024-06-22 05:10 pm SW 14.0 19.0----29.85- 92.1-----
2024-06-22 05:00 pmWSW 15.9 21.0----29.86-0.06 92.5-----
2024-06-22 04:50 pm SW 14.0 17.1----29.86- 92.7-----
2024-06-22 04:40 pm SW 11.1 15.0----29.86- 92.3-----
2024-06-22 04:30 pmWSW 9.9 17.1----29.87- 91.8-----
2024-06-22 04:20 pm SW 14.0 17.1----29.87- 91.9-----
2024-06-22 04:10 pm SW 14.0 19.0----29.87- 92.5-----
2024-06-22 04:00 pm SW 11.1 15.0----29.88-0.07 91.8-----
2024-06-22 03:50 pmWSW 12.0 17.1----29.88- 92.1-----
2024-06-22 03:40 pm SW 11.1 15.0----29.89- 92.1-----
2024-06-22 03:30 pm SW 9.9 13.0----29.89- 91.2-----
2024-06-22 03:20 pmWSW 8.9 12.0----29.89- 90.3-----
2024-06-22 03:10 pmWSW 8.0 15.9----29.89- 90.7-----
2024-06-22 03:00 pmWSW 8.9 15.0----29.90-0.07 90.9-----
2024-06-22 02:50 pmWSW 13.0 15.9----29.90- 90.9-----
2024-06-22 02:40 pm SW 9.9 14.0----29.91- 91.2-----
2024-06-22 02:30 pmSSW 9.9 15.0----29.91- 91.2-----
2024-06-22 02:20 pm SW 7.0 12.0----29.91- 90.3-----
2024-06-22 02:10 pm W 4.1 11.1----29.92- 89.4-----
2024-06-22 02:00 pmWSW 8.9 12.0----29.92-0.07 89.2-----
2024-06-22 01:50 pmWSW 8.9 14.0----29.93- 89.2-----
2024-06-22 01:40 pm SW 8.0 14.0----29.93- 89.8-----
2024-06-22 01:30 pm W 8.0 13.0----29.94- 89.2-----
2024-06-22 01:20 pm SW 9.9 13.0----29.94- 90.0-----
2024-06-22 01:10 pmWSW 8.0 12.0----29.95- 89.2-----
2024-06-22 01:00 pm W 8.0 11.1----29.95-0.05 88.7-----
2024-06-22 12:50 pmWSW 8.0 12.0----29.96- 88.2-----
2024-06-22 12:40 pm W 8.9 13.0----29.96- 87.8-----
2024-06-22 12:30 pm W 8.0 14.0----29.96- 87.8-----
2024-06-22 12:20 pm W 8.0 12.0----29.96- 87.6-----
2024-06-22 12:10 pm W 8.0 12.0----29.97- 87.4-----
2024-06-22 12:00 pm W 8.9 14.0----29.97-0.03 87.4-----
2024-06-22 11:50 am W 8.9 13.0----29.97- 88.2-----
2024-06-22 11:40 amWSW 11.1 15.9----29.97- 87.6-----
2024-06-22 11:30 amWSW 11.1 15.0----29.98- 87.8-----
2024-06-22 11:20 am W 8.0 12.0----29.98- 88.0-----
2024-06-22 11:10 amWSW 8.0 12.0----29.99- 88.0-----
2024-06-22 11:00 amWSW 4.1 8.0----29.99-0.01 87.3-----
2024-06-22 10:50 amWSW 6.0 8.9----29.99- 86.4-----
2024-06-22 10:40 amWSW 4.1 7.0----29.99- 86.0-----
2024-06-22 10:30 am W 7.0 8.0----29.99- 85.6-----
2024-06-22 10:20 am W 7.0 9.9----29.99- 86.5-----
2024-06-22 10:10 amSSW 5.1 8.0----29.99- 86.7-----
2024-06-22 10:00 am SW 7.0 8.9----30.00-0.01 84.4-----
2024-06-22 09:50 am SW 7.0 8.9----30.00- 85.1-----
2024-06-22 09:40 am SW 6.0 8.9----30.00- 83.5-----
2024-06-22 09:30 amWSW 8.0 9.9----30.00- 83.5-----
2024-06-22 09:20 am SW 6.0 8.0----30.00- 83.1-----
2024-06-22 09:10 am SW 7.0 8.9----30.01- 82.0-----
2024-06-22 09:00 am SW 7.0 9.9----30.00-0.01 80.8-----
2024-06-22 08:50 am SW 8.0 8.9----30.00- 81.0-----
2024-06-22 08:40 am SW 7.0 9.9----30.00- 81.3-----
2024-06-22 08:30 am SW 8.0 11.1----30.01- 81.0-----
2024-06-22 08:20 am SW 7.0 9.9----30.01- 80.4-----
2024-06-22 08:10 am SW 8.0 9.9----30.01- 79.9-----
2024-06-22 08:00 am SW 8.0 9.9----30.00+0.00 79.2-----
2024-06-22 07:50 am SW 7.0 8.9----30.01- 78.4-----